CW0565 Weather Reports


Display with metric or nautical units.
time (UTC)temp
F
wind
direction
speed
MPH
gust
MPH
rain 1hr
in
rain 24hr
in
rain mn
in
humidity
%
barometer
mb
20200408001514 35 245 0.0 0.0 0.00 0.00 0.00 86 1029.3
20200408000510 35 245 0.0 0.0 0.00 0.00 0.00 86 1029.4
20200408000007 35 245 0.0 0.0 0.00 0.00 0.00 86 1029.4
20200407235505 35 245 0.0 1.0 0.00 0.00 0.00 85 1029.4
20200407235004 35 245 0.0 0.0 0.00 0.00 0.00 85 1029.5
20200407234507 35 245 0.0 0.0 0.00 0.00 0.00 84 1029.5
20200407234003 35 245 0.0 0.0 0.00 0.00 0.00 84 1029.4
20200407233502 36 245 0.0 0.0 0.00 0.00 0.00 84 1029.4
20200407233006 36 245 0.0 2.0 0.00 0.00 0.00 83 1029.5
20200407232600 37 245 0.0 2.0 0.00 0.00 0.00 84 1029.6
20200407232506 37 245 0.0 2.0 0.00 0.00 0.00 84 1029.6
20200407232108 37 245 0.0 0.0 0.00 0.00 0.00 83 1029.5
20200407231737 37 245 0.0 0.0 0.00 0.00 0.00 83 1029.4
20200407230507 36 245 0.0 0.0 0.00 0.00 0.00 82 1029.5
20200407230032 37 244 0.0 0.0 0.00 0.01 0.00 82 1029.6
20200407225505 37 245 0.0 0.0 0.00 0.01 0.00 81 1029.6
20200407225009 37 245 0.0 0.0 0.00 0.01 0.00 81 1029.5
20200407224504 38 245 0.0 0.0 0.00 0.01 0.00 81 1029.5
20200407224011 38 245 0.0 0.0 0.00 0.01 0.00 81 1029.5
20200407223502 38 245 0.0 3.0 0.00 0.01 0.00 80 1029.4
20200407223003 38 244 0.0 3.0 0.00 0.01 0.00 80 1029.6
20200407222103 39 245 0.0 1.0 0.00 0.01 0.00 78 1029.7
20200407221627 39 245 0.0 1.0 0.00 0.01 0.00 77 1029.7
20200407220601 39 245 0.0 0.0 0.00 0.01 0.00 76 1029.8
20200407220136 39 245 0.0 2.0 0.00 0.01 0.00 76 1029.7
20200407215550 39 245 0.0 2.0 0.00 0.01 0.01 75 1029.7
20200407215048 40 244 0.0 1.0 0.00 0.01 0.01 73 1029.7
20200407214619 40 245 0.0 1.0 0.00 0.01 0.01 71 1029.7
20200407214046 41 245 0.0 1.0 0.00 0.01 0.01 71 1029.5
20200407213546 41 245 0.0 5.0 0.00 0.01 0.01 70 1029.7
20200407213137 42 245 0.0 5.0 0.00 0.01 0.01 67 1029.7
20200407212546 42 245 1.0 4.0 0.00 0.01 0.01 67 1029.7
20200407212050 42 245 2.0 4.0 0.00 0.01 0.01 67 1029.9
20200407211623 42 246 1.0 4.0 0.00 0.01 0.01 66 1029.9
20200407210548 43 245 1.0 5.0 0.00 0.01 0.01 65 1029.9
20200407210109 43 244 1.0 5.0 0.00 0.01 0.01 65 1029.9
20200407205605 43 240 1.0 5.0 0.00 0.05 0.01 64 1030.0
20200407205049 43 239 1.0 5.0 0.00 0.05 0.01 64 1029.9
20200407204658 43 230 1.0 6.0 0.00 0.05 0.01 64 1029.8
20200407204051 43 229 2.0 6.0 0.00 0.05 0.01 64 1029.9
20200407203546 44 227 1.0 6.0 0.00 0.05 0.01 64 1029.9
20200407203112 44 221 0.0 4.0 0.00 0.05 0.01 63 1029.8
20200407202546 44 221 1.0 4.0 0.00 0.05 0.01 63 1029.8
20200407202046 44 221 1.0 6.0 0.00 0.05 0.01 62 1029.9
20200407201648 44 216 1.0 5.0 0.00 0.05 0.01 62 1029.9
20200407200542 45 211 1.0 5.0 0.00 0.05 0.01 62 1030.0
20200407200050 45 211 1.0 5.0 0.00 0.05 0.01 62 1030.0
20200407195543 45 211 2.0 5.0 0.00 0.09 0.01 62 1030.0
20200407195043 45 211 1.0 4.0 0.00 0.09 0.01 61 1030.1
20200407194657 45 208 2.0 6.0 0.00 0.09 0.01 61 1030.1
20200407194102 46 208 1.0 6.0 0.00 0.09 0.01 61 1030.0
20200407193543 46 205 2.0 6.0 0.00 0.09 0.01 61 1030.1
20200407193121 46 207 3.0 7.0 0.00 0.09 0.01 61 1030.1
20200407192542 46 216 3.0 7.0 0.00 0.09 0.01 60 1030.1
20200407192046 46 217 3.0 5.0 0.00 0.09 0.01 60 1030.2
20200407191642 46 217 2.0 6.0 0.00 0.09 0.01 60 1030.1
20200407190555 47 229 3.0 7.0 0.00 0.09 0.01 60 1030.1
20200407190146 47 241 3.0 4.0 0.00 0.09 0.01 59 1030.1
20200407185551 47 241 2.0 4.0 0.00 0.10 0.01 59 1030.0
20200407185049 47 242 2.0 7.0 0.00 0.10 0.01 59 1030.0
20200407184646 47 241 2.0 7.0 0.00 0.10 0.01 59 1029.9
20200407184046 47 228 3.0 7.0 0.00 0.10 0.01 58 1029.9
20200407183546 48 205 1.0 6.0 0.00 0.10 0.01 58 1029.9
20200407183131 48 205 2.0 6.0 0.00 0.10 0.01 58 1029.9
20200407182554 48 209 3.0 7.0 0.00 0.10 0.01 58 1029.8
20200407182045 48 219 2.0 9.0 0.00 0.10 0.01 58 1029.8
20200407181614 48 226 3.0 10.0 0.00 0.10 0.01 57 1029.8
20200407180542 49 221 4.0 10.0 0.00 0.10 0.01 56 1029.7
20200407180139 49 232 4.0 9.0 0.00 0.10 0.01 54 1029.7
20200407175542 50 227 2.0 7.0 0.00 0.10 0.01 52 1029.7
20200407175039 50 261 4.0 8.0 0.00 0.10 0.01 48 1029.7
20200407174622 50 244 3.0 10.0 0.00 0.10 0.01 46 1029.7
20200407174041 50 248 4.0 10.0 0.00 0.10 0.01 45 1029.7
20200407173538 51 242 2.0 10.0 0.00 0.10 0.01 44 1029.6
20200407173115 51 249 5.0 11.0 0.00 0.10 0.01 43 1029.6
20200407172541 51 259 2.0 11.0 0.00 0.10 0.01 43 1029.6
20200407172040 51 259 5.0 11.0 0.00 0.10 0.01 43 1029.7
20200407171647 51 236 4.0 13.0 0.00 0.10 0.01 43 1029.6
20200407171037 52 266 5.0 12.0 0.00 0.10 0.01 42 1029.6
20200407170552 52 230 5.0 12.0 0.00 0.10 0.01 42 1029.6
20200407170043 52 233 4.0 12.0 0.00 0.10 0.01 42 1029.6
20200407165537 52 273 6.0 11.0 0.00 0.10 0.01 42 1029.6
20200407165053 52 250 5.0 10.0 0.00 0.10 0.01 41 1029.6
20200407164615 52 242 2.0 11.0 0.00 0.10 0.01 42 1029.6
20200407164058 52 254 2.0 13.0 0.00 0.10 0.01 42 1029.6
20200407163540 52 295 1.0 13.0 0.00 0.10 0.01 42 1029.6
20200407163051 52 310 8.0 15.0 0.00 0.10 0.01 40 1029.5
20200407162535 52 265 4.0 15.0 0.00 0.10 0.01 40 1029.6
20200407162036 53 233 3.0 16.0 0.00 0.10 0.01 40 1029.6
20200407160546 53 271 5.0 17.0 0.00 0.10 0.01 36 1029.6
20200407160137 53 247 5.0 14.0 0.00 0.10 0.01 36 1029.7
20200407155536 53 284 7.0 17.0 0.00 0.10 0.01 34 1029.6
20200407155044 53 229 5.0 17.0 0.00 0.10 0.01 34 1029.7
20200407154603 53 236 7.0 17.0 0.00 0.10 0.01 35 1029.7
20200407154100 54 257 9.0 17.0 0.00 0.10 0.01 35 1029.6
20200407153556 54 271 8.0 15.0 0.00 0.10 0.01 36 1029.6
20200407153038 54 245 6.0 14.0 0.00 0.10 0.01 37 1029.5
20200407152543 54 243 7.0 17.0 0.00 0.10 0.01 37 1029.5
20200407152035 54 229 8.0 16.0 0.00 0.10 0.01 36 1029.5
20200407151602 55 212 9.0 15.0 0.00 0.10 0.01 35 1029.4
20200407150537 55 250 6.0 17.0 0.00 0.10 0.01 37 1029.5
20200407150118 55 238 10.0 17.0 0.00 0.10 0.01 39 1029.5
20200407145536 55 284 7.0 17.0 0.00 0.10 0.01 40 1029.6
20200407145103 55 227 11.0 17.0 0.00 0.10 0.01 39 1029.5
20200407144643 55 254 7.0 15.0 0.00 0.10 0.01 39 1029.5
20200407144042 55 259 8.0 14.0 0.00 0.10 0.01 39 1029.5
20200407143542 55 259 3.0 17.0 0.00 0.10 0.01 40 1029.4
20200407143100 56 239 9.0 17.0 0.00 0.10 0.01 40 1029.5
20200407142531 56 237 9.0 16.0 0.00 0.10 0.01 38 1029.5
20200407142035 56 265 7.0 14.0 0.00 0.10 0.01 40 1029.4
20200407141544 57 251 7.0 12.0 0.00 0.10 0.01 40 1029.5
20200407141035 56 247 8.0 13.0 0.00 0.10 0.01 41 1029.5
20200407140532 56 242 6.0 13.0 0.00 0.10 0.01 41 1029.5
20200407140047 56 298 9.0 13.0 0.00 0.10 0.01 43 1029.6
20200407135550 56 237 3.0 13.0 0.00 0.10 0.01 43 1029.6
20200407135037 56 316 5.0 14.0 0.00 0.10 0.01 43 1029.5
20200407134618 56 300 6.0 14.0 0.00 0.10 0.01 43 1029.6
20200407133533 56 252 3.0 9.0 0.00 0.10 0.01 41 1029.6
20200407133039 56 306 3.0 9.0 0.00 0.10 0.01 38 1029.5
20200407132527 56 248 2.0 14.0 0.00 0.10 0.01 41 1029.5
20200407132029 56 230 6.0 15.0 0.00 0.10 0.01 39 1029.4
20200407131605 56 216 7.0 14.0 0.00 0.10 0.01 38 1029.3
20200407131024 56 300 3.0 15.0 0.00 0.10 0.01 38 1029.3
20200407130535 56 275 2.0 15.0 0.00 0.10 0.01 38 1029.3
20200407130109 55 303 6.0 15.0 0.00 0.10 0.01 38 1029.4
20200407125529 55 340 3.0 16.0 0.00 0.10 0.01 38 1029.4
20200407125027 55 306 7.0 18.0 0.00 0.10 0.01 37 1029.4
20200407124547 56 304 5.0 18.0 0.00 0.10 0.01 37 1029.4
20200407124035 56 234 8.0 16.0 0.00 0.10 0.01 36 1029.4
20200407123536 56 223 8.0 16.0 0.00 0.10 0.01 38 1029.5
20200407123040 56 273 7.0 15.0 0.00 0.10 0.01 40 1029.3
20200407122521 55 272 4.0 13.0 0.00 0.10 0.01 40 1029.4
20200407122020 55 281 1.0 14.0 0.00 0.10 0.01 41 1029.2
20200407121558 55 324 9.0 16.0 0.00 0.10 0.01 40 1029.2
20200407120522 55 249 2.0 15.0 0.00 0.10 0.01 44 1029.1
20200407120048 55 327 3.0 10.0 0.00 0.10 0.01 43 1029.0
20200407115539 54 269 5.0 16.0 0.00 0.10 0.01 44 1029.0
20200407115017 54 290 11.0 16.0 0.00 0.10 0.01 44 1028.9
20200407114534 54 315 6.0 16.0 0.00 0.10 0.01 45 1028.9
20200407114015 54 340 9.0 16.0 0.00 0.10 0.01 46 1028.9
20200407113515 53 312 9.0 17.0 0.00 0.10 0.01 46 1028.8
20200407113028 54 307 11.0 17.0 0.00 0.10 0.01 46 1028.8
20200407112514 54 296 6.0 13.0 0.00 0.10 0.01 47 1028.9
20200407112016 54 274 6.0 13.0 0.00 0.10 0.01 46 1028.9
20200407111512 54 289 6.0 13.0 0.00 0.10 0.01 46 1028.9
20200407111014 54 279 6.0 17.0 0.00 0.10 0.01 47 1028.8
20200407110514 54 279 6.0 17.0 0.00 0.10 0.01 46 1028.6
20200407110047 54 302 5.0 13.0 0.00 0.10 0.01 48 1028.6
20200407105514 53 213 4.0 13.0 0.00 0.10 0.01 48 1028.8
20200407105006 53 279 6.0 13.0 0.00 0.10 0.01 48 1028.6
20200407104505 53 281 4.0 14.0 0.00 0.10 0.01 49 1028.6
20200407104014 52 259 4.0 18.0 0.00 0.10 0.01 50 1028.5
20200407103503 52 292 11.0 18.0 0.00 0.10 0.01 49 1028.5
20200407103005 52 300 4.0 18.0 0.00 0.10 0.01 49 1028.5
20200407102502 51 307 9.0 18.0 0.00 0.10 0.01 50 1028.4
20200407101757 51 279 4.0 15.0 0.00 0.10 0.01 52 1028.3
20200407101059 51 271 2.0 16.0 0.00 0.10 0.01 50 1028.2
20200407100132 51 315 4.0 18.0 0.00 0.10 0.01 52 1028.2
20200407095559 51 299 4.0 17.0 0.00 0.10 0.01 54 1028.1
20200407095058 50 339 12.0 22.0 0.00 0.10 0.01 52 1028.0
20200407094729 51 321 9.0 22.0 0.00 0.10 0.01 53 1028.0
20200407094056 51 320 14.0 24.0 0.00 0.10 0.01 52 1028.0
20200407093602 51 5 14.0 24.0 0.00 0.10 0.01 52 1027.9
20200407093101 51 296 6.0 15.0 0.00 0.10 0.01 54 1027.8
20200407092553 51 279 8.0 18.0 0.00 0.10 0.01 54 1027.8
20200407092052 50 291 6.0 18.0 0.00 0.10 0.01 56 1027.6
20200407091631 50 318 10.0 17.0 0.00 0.10 0.01 56 1027.6
20200407091057 50 294 5.0 14.0 0.00 0.10 0.01 57 1027.6
20200407090503 50 343 10.0 14.0 0.00 0.10 0.01 58 1027.5
20200407090014 50 319 5.0 13.0 0.00 0.10 0.01 59 1027.5
20200407085600 50 288 4.0 14.0 0.00 0.10 0.01 60 1027.4
20200407085058 49 320 7.0 14.0 0.00 0.10 0.01 60 1027.4
20200407084619 49 258 4.0 11.0 0.00 0.10 0.01 62 1027.3
20200407084056 49 309 2.0 10.0 0.00 0.10 0.01 63 1027.2
20200407083603 48 264 6.0 16.0 0.00 0.10 0.01 63 1027.2
20200407083143 48 313 9.0 16.0 0.00 0.10 0.01 63 1027.1
20200407082553 48 310 7.0 14.0 0.00 0.10 0.01 64 1027.0
20200407082051 48 275 6.0 14.0 0.00 0.10 0.01 66 1027.0
20200407081724 48 271 4.0 15.0 0.00 0.10 0.01 66 1026.9
20200407081049 47 302 7.0 15.0 0.00 0.10 0.01 67 1026.8
20200407080113 47 316 3.0 12.0 0.00 0.10 0.01 68 1026.7
20200407075551 47 335 5.0 14.0 0.00 0.10 0.01 68 1026.4
20200407075049 47 301 10.0 14.0 0.00 0.10 0.01 68 1026.4
20200407074607 47 323 3.0 12.0 0.00 0.10 0.01 71 1026.3
20200407074046 47 306 4.0 15.0 0.00 0.10 0.01 72 1026.2
20200407073555 46 309 7.0 15.0 0.00 0.10 0.01 72 1026.1
20200407073118 46 316 6.0 12.0 0.00 0.10 0.01 72 1025.9
20200407072543 46 311 3.0 7.0 0.00 0.10 0.01 73 1025.9
20200407072041 46 300 3.0 8.0 0.00 0.10 0.01 74 1025.8
20200407071631 46 319 3.0 9.0 0.00 0.10 0.01 75 1025.7
20200407070031 44 294 3.0 11.0 0.00 0.10 0.01 79 1025.6
20200407065528 44 263 4.0 9.0 0.00 0.10 0.01 80 1025.5
20200407065027 44 289 2.0 4.0 0.00 0.10 0.01 82 1025.5
20200407064710 44 312 0.0 10.0 0.00 0.10 0.01 82 1025.3
20200407064024 44 294 3.0 10.0 0.00 0.10 0.01 82 1025.3
20200407063556 43 275 2.0 7.0 0.00 0.10 0.01 84 1025.2
20200407063150 43 260 0.0 6.0 0.00 0.10 0.01 84 1025.1
20200407062521 43 259 1.0 6.0 0.00 0.10 0.01 85 1025.0
20200407062018 43 261 2.0 6.0 0.00 0.10 0.01 85 1024.9
20200407061607 43 254 1.0 4.0 0.00 0.10 0.01 86 1024.8
20200407061016 42 271 1.0 6.0 0.00 0.10 0.01 86 1024.7
20200407060044 42 296 0.0 3.0 0.00 0.10 0.01 87 1024.4
20200407055508 42 297 0.0 4.0 0.00 0.10 0.01 87 1024.2
20200407055009 42 296 0.0 8.0 0.00 0.10 0.01 87 1024.1
20200407054506 42 296 0.0 8.0 0.00 0.10 0.01 88 1024.0
20200407054004 41 266 0.0 3.0 0.00 0.10 0.01 88 1023.9
20200407053503 41 265 0.0 6.0 0.00 0.10 0.01 89 1023.8
20200407053009 41 265 2.0 7.0 0.00 0.10 0.01 89 1023.7
20200407052606 41 266 1.0 7.0 0.00 0.10 0.01 90 1023.6
20200407052059 41 280 2.0 5.0 0.00 0.10 0.01 90 1023.5
20200407051638 41 286 2.0 4.0 0.00 0.10 0.01 90 1023.4
20200407051104 41 286 0.0 2.0 0.00 0.10 0.01 90 1023.3
20200407050112 41 286 0.0 3.0 0.00 0.10 0.01 89 1023.1
20200407045554 41 286 0.0 3.0 0.00 0.10 0.01 89 1023.0
20200407045052 41 286 0.0 8.0 0.00 0.10 0.01 88 1022.9
20200407044615 41 286 2.0 9.0 0.00 0.10 0.01 89 1022.8
20200407043605 41 283 3.0 9.0 0.00 0.10 0.01 90 1022.7
20200407043151 41 249 4.0 10.0 0.00 0.10 0.01 90 1022.6
20200407042548 41 275 4.0 10.0 0.00 0.10 0.01 90 1022.5
20200407042047 41 284 3.0 9.0 0.00 0.10 0.01 90 1022.3
20200407041551 41 281 5.0 9.0 0.00 0.10 0.01 90 1022.1
20200407041044 41 295 4.0 9.0 0.00 0.10 0.01 91 1022.2
20200407040144 41 281 4.0 11.0 0.00 0.10 0.01 90 1022.0
20200407035545 41 272 4.0 9.0 0.00 0.10 0.01 91 1021.8
20200407035048 41 250 3.0 9.0 0.00 0.10 0.01 91 1021.8
20200407034606 41 298 4.0 11.0 0.00 0.10 0.01 91 1021.6
20200407034057 41 266 4.0 11.0 0.00 0.10 0.01 91 1021.6
20200407033541 41 288 4.0 10.0 0.00 0.10 0.01 92 1021.5
20200407033056 41 280 5.0 10.0 0.00 0.10 0.01 92 1021.5
20200407032545 41 257 3.0 10.0 0.00 0.10 0.01 92 1021.6
20200407032046 41 275 2.0 10.0 0.00 0.10 0.01 92 1021.5
20200407031616 41 273 2.0 7.0 0.00 0.10 0.01 92 1021.4
20200407031051 41 311 2.0 4.0 0.00 0.10 0.01 92 1021.3
20200407030056 41 340 2.0 6.0 0.00 0.10 0.01 92 1021.2
20200407025537 41 280 0.0 5.0 0.00 0.10 0.01 91 1021.0
20200407025030 42 295 0.0 3.0 0.00 0.10 0.01 91 1020.9
20200407024603 42 295 0.0 9.0 0.00 0.10 0.01 91 1020.9
20200407024029 42 295 2.0 9.0 0.00 0.10 0.01 91 1020.8
20200407023529 42 294 3.0 9.0 0.00 0.10 0.01 91 1020.7
20200407023140 42 260 2.0 9.0 0.00 0.10 0.01 91 1020.5
20200407022536 43 238 4.0 10.0 0.00 0.10 0.01 91 1020.5
20200407022034 43 287 6.0 10.0 0.00 0.10 0.01 91 1020.4
20200407021526 43 267 4.0 10.0 0.00 0.10 0.01 91 1020.4
20200407021024 43 245 5.0 11.0 0.00 0.10 0.01 91 1020.3
20200407020124 43 235 5.0 11.0 0.00 0.10 0.01 91 1020.1
20200407015525 43 271 5.0 11.0 0.00 0.10 0.01 91 1020.2
20200407015025 43 242 5.0 11.0 0.00 0.10 0.01 91 1020.1
20200407014554 43 240 3.0 10.0 0.00 0.10 0.01 91 1020.0
20200407014024 43 267 4.0 10.0 0.00 0.10 0.01 92 1020.0
20200407013524 43 244 4.0 10.0 0.00 0.10 0.01 92 1020.0
20200407013101 44 259 3.0 8.0 0.00 0.10 0.01 92 1019.9
20200407012528 44 242 3.0 11.0 0.00 0.10 0.01 92 1019.9
20200407012024 44 245 3.0 11.0 0.00 0.10 0.01 92 1019.8
20200407011611 44 244 5.0 10.0 0.00 0.10 0.01 92 1019.7
20200407011024 44 252 3.0 8.0 0.00 0.10 0.01 92 1019.7
20200407010032 44 252 1.0 8.0 0.00 0.10 0.01 92 1019.7
20200407005523 44 267 3.0 11.0 0.00 0.10 0.01 92 1019.7
20200407005018 44 248 2.0 11.0 0.00 0.10 0.01 92 1019.6
20200407004537 44 275 2.0 9.0 0.00 0.10 0.01 92 1019.5
20200407004017 44 253 3.0 11.0 0.00 0.10 0.01 92 1019.4
20200407003517 44 234 3.0 11.0 0.00 0.10 0.01 92 1019.4
20200407003022 44 261 4.0 12.0 0.00 0.10 0.01 92 1019.3
20200407002536 44 281 4.0 12.0 0.00 0.10 0.01 92 1019.6
20200407002017 44 274 6.0 12.0 0.00 0.10 0.01 93 1019.2